ATLAS 5 CENTAUR R/B (49329 NORAD) Tracking and Keplerian Element Data

This shows tracking and keplerian element data for the satellite.

Feedback or suggestion? Click here.




ElementValue
Catalog49329
NameATLAS 5 CENTAUR R/B
Epoch Orbit0
Epoch Day289.40775685
Epoch Year2021
RAAN357.4008
Inclination28.47
Eccentricity0.0105
Argument of Perigee216.7
Mean Anonmoly268.5023
Mean Motion16.1596064
Decay Rate2.371E-05
L11 49329U 21093B 21289.40775685 .00002371 -74891-5 00000-0 0 9994
L22 49329 28.4700 357.4008 0105000 216.7000 268.5023 16.15960640 03

Live tracking and technical data element details for ATLAS 5 CENTAUR R/B (NORAD 49329). ATLAS 5 CENTAUR R/B can be tracked NOW for your location showing map with azimuth and elevation plus other details from your city location.

Track the satellite on the map from your city or location and see movement details for azimuth, elevation, latitude, longitude, range, height, and movement on the map or in text.







IsCatalogInMostPopularTable: catalog: 49329, numindb: 3
Update: records affected: 1



GetName: 49329 ATLAS 5 CENTAUR R/B

Hit Count: updated at: Mon, 06 Dec 2021 13:40:28 GMT